Temperature
18 18 18 18 18 18 18 18 18 17 17 17 17 16 16 16 15 15 15 15 14 14 14 14 14 14 14 14 14 14 14 14 14 15 15 15 15 16 16 16 16 16 17
18 18 18 18 18 18 18 17 17 17 17 16 16 16 15 15 15 14 14 14 14 14 14 14 14 14 14 14 14 14 14 14 14 14 14 14 15 16 16 16 16 16 16
19 18 18 18 18 18 18 17 17 17 16 16 15 15 15 15 14 14 14 13 13 13 13 13 13 13 13 13 13 13 13 13 13 13 13 14 14 15 16 16 16 17 17
19 19 19 18 18 18 18 17 17 16 16 15 15 15 14 14 13 13 13 13 13 13 13 13 13 13 13 13 13 13 13 13 13 13 13 13 13 14 15 16 16 16 16
19 19 19 19 19 18 18 17 17 16 15 15 14 14 13 13 12 12 12 12 12 12 12 12 12 12 12 12 12 12 12 12 13 13 13 13 13 13 14 15 16 16 17
20 20 19 19 18 18 17 17 16 15 15 14 14 13 13 12 12 11 11 11 11 11 11 12 12 12 12 11 12 12 12 12 12 12 12 13 13 13 13 14 15 15 16
20 20 19 19 18 18 17 16 16 15 15 14 13 13 12 12 11 11 11 11 10 11 11 11 11 11 11 11 11 11 11 11 12 12 12 12 12 13 13 13 14 14 15
20 20 19 19 18 17 17 16 15 15 14 13 13 12 12 11 11 11 10 10 10 10 10 10 10 10 10 10 10 10 11 11 11 11 11 12 12 12 13 13 13 14 14
20 19 19 18 18 17 16 15 15 14 13 13 12 11 11 11 10 10 10 10 9 9 9 9 9 10 10 10 10 10 10 10 10 11 11 11 12 12 12 12 13 13 13
19 19 18 18 17 16 16 15 14 13 13 12 11 11 11 10 10 10 9 9 9 9 9 9 9 9 9 9 9 9 10 10 10 10 10 11 11 11 12 12 12 13 13
19 18 18 17 17 16 15 14 13 13 12 11 11 11 10 10 10 9 9 9 9 9 9 9 9 9 9 9 9 9 9 9 9 10 10 10 10 11 11 11 12 12 13
19 18 17 17 16 15 14 13 13 12 11 11 11 10 10 10 9 9 9 9 9 9 8 8 8 8 8 8 9 9 9 9 9 9 9 10 10 10 11 11 11 12 12
18 17 17 16 15 14 13 13 12 12 11 11 10 10 10 9 9 9 9 9 8 8 8 8 8 8 8 8 8 8 8 9 9 9 9 9 10 10 10 10 11 11 12
17 17 16 15 14 13 13 12 12 11 11 11 10 10 9 9 9 9 9 9 8 8 8 8 8 8 8 8 8 8 8 8 8 9 9 9 9 9 10 10 10 11 11
17 16 15 15 14 13 12 12 12 11 11 10 10 10 9 9 9 9 9 8 8 8 8 8 8 8 8 8 8 8 8 8 8 8 8 9 9 9 9 9 10 10 11
16 16 15 14 13 13 12 12 11 11 11 10 10 9 9 9 9 9 8 8 8 8 8 8 8 8 8 8 7 7 7 7 7 8 8 8 8 9 9 9 9 10 10
16 16 15 14 13 12 12 11 11 11 10 10 10 9 9 9 9 8 8 8 8 8 8 8 8 8 8 8 8 7 7 7 7 7 8 8 8 8 9 9 9 9 10
16 15 14 14 13 12 12 11 11 10 10 10 9 9 9 8 8 8 8 8 8 8 8 8 8 8 8 8 7 7 7 7 7 7 7 7 8 8 8 9 9 9 10
16 15 14 13 13 12 12 11 11 10 10 10 9 9 8 8 8 8 8 8 8 8 8 8 8 8 8 8 7 7 7 7 7 7 7 7 7 8 8 8 8 9 9
16 15 14 13 13 12 11 11 10 10 10 9 9 9 8 8 8 8 8 8 8 8 8 8 8 8 8 8 7 7 7 7 7 7 7 7 7 7 8 8 8 8 9
16 15 14 13 12 12 11 11 10 10 10 9 9 9 8 8 8 8 8 8 8 8 8 8 8 8 7 7 7 7 7 7 7 6 7 7 7 7 7 8 8 8 9
16 15 14 13 12 12 11 10 10 10 9 9 9 9 8 8 8 8 8 8 8 8 8 8 8 8 7 7 7 7 7 6 6 6 6 7 7 7 7 7 8 8 8
16 15 14 13 12 11 11 10 10 10 9 9 9 9 8 8 8 8 8 8 8 8 8 8 8 8 7 7 7 7 6 6 6 6 6 7 7 7 7 7 8 8 8
15 15 14 13 12 12 11 10 10 9 9 9 9 9 8 8 8 8 8 8 8 8 8 8 7 7 7 7 7 6 6 6 6 6 6 6 7 7 7 7 8 8 8
15 15 14 13 12 12 11 10 10 9 9 9 9 9 8 8 8 8 8 8 8 8 8 7 7 7 7 7 6 6 6 6 6 6 6 6 7 7 7 7 8 8 8
15 15 14 13 12 12 11 10 10 9 9 9 9 9 8 8 8 8 8 9 8 8 8 8 7 7 7 6 6 6 6 6 6 6 6 6 7 7 7 8 8 8 8
Wind_Speed
5 6 6 6 6 5 5 5 4 3 3 3 3 3 3 3 3 3 2 1 2 2 1 1 2 2 2 3 4 3 4 4 3 3 4 4 6 8 8 9 9 11 13
5 6 7 6 6 6 6 6 5 4 3 2 2 1 1 2 1 2 3 5 5 5 3 3 3 3 2 3 4 3 3 3 2 2 2 3 3 5 9 8 10 11 9
9 9 8 8 7 7 7 7 6 5 4 3 2 2 2 3 3 4 4 4 7 7 6 5 5 4 3 3 4 2 2 3 3 2 2 2 3 3 3 7 9 9 9
9 9 9 9 8 8 7 6 6 5 4 3 2 2 1 1 3 3 4 6 7 7 8 6 5 5 4 4 4 2 2 2 3 3 3 3 2 3 3 3 5 8 10
11 10 10 9 8 6 5 5 5 4 3 3 3 2 2 3 3 3 5 6 6 6 6 5 4 4 4 5 4 3 3 2 3 3 3 3 3 4 4 4 4 4 6
9 9 7 6 3 3 4 5 5 3 3 3 3 3 4 4 4 5 5 5 4 5 6 5 4 4 4 5 5 5 5 4 4 3 3 3 3 2 2 4 3 4 4
6 6 5 5 4 5 4 4 4 3 3 3 3 4 5 4 4 5 4 5 4 4 6 6 5 4 4 5 5 5 6 5 5 5 4 4 4 3 3 3 3 4 3
5 5 6 6 5 6 5 4 3 2 3 3 4 4 4 3 3 4 4 5 4 5 6 6 5 6 6 6 5 5 6 6 6 7 6 4 4 3 3 3 2 3 3
7 7 6 7 6 5 4 4 3 2 3 4 4 4 4 4 5 5 5 5 5 6 6 6 6 6 6 6 6 5 7 6 6 7 6 5 5 4 4 4 3 3 3
7 7 6 5 4 4 3 2 2 3 4 4 4 4 5 5 5 5 6 7 7 7 7 7 7 7 7 7 6 6 7 7 7 6 7 6 5 5 4 4 4 4 4
7 6 5 4 4 3 2 2 2 3 4 5 5 5 5 6 6 6 7 7 7 7 8 8 8 8 8 8 7 7 8 8 8 8 8 8 7 5 5 4 4 4 4
7 6 5 3 3 2 2 3 4 4 5 5 5 5 6 6 7 7 8 8 8 8 8 8 8 9 9 8 8 9 9 8 9 9 9 9 7 7 5 4 5 5 5
7 4 3 3 3 4 4 5 5 6 6 5 5 5 6 7 8 8 8 8 8 8 8 8 9 10 10 10 10 10 10 10 10 9 9 10 9 8 6 6 6 5 5
7 5 3 3 4 5 5 5 6 6 5 5 5 6 7 8 8 8 8 8 8 8 9 9 9 10 10 10 11 10 10 11 10 10 10 10 9 10 9 7 7 6 5
6 5 3 3 4 5 5 5 5 5 5 5 6 7 8 8 8 8 8 8 8 9 8 9 9 9 9 10 11 10 11 10 10 10 9 10 12 14 11 8 7 7 6
5 4 3 3 4 5 5 5 5 5 5 6 7 8 8 8 8 8 8 8 9 9 9 9 10 10 10 13 15 12 9 9 10 10 9 10 11 14 15 15 13 11 9
5 4 4 4 5 5 5 5 5 5 5 7 7 8 7 8 8 9 9 9 9 9 10 10 10 11 12 16 17 18 11 10 10 10 10 11 11 11 9 11 14 13 14
6 4 4 4 4 4 4 4 4 5 6 7 8 8 8 9 9 9 9 9 9 9 9 10 10 10 13 16 16 17 12 10 11 11 11 11 10 10 9 8 8 8 9
6 5 5 4 3 4 4 4 5 6 7 7 8 8 8 9 10 10 10 10 9 10 9 9 10 10 12 14 15 14 8 9 11 11 11 11 10 13 14 10 8 8 7
5 4 3 2 3 5 4 4 6 6 8 8 8 8 8 9 10 11 11 10 9 10 10 10 9 10 10 13 14 12 6 8 8 8 9 13 13 14 15 11 9 9 8
5 5 3 2 4 5 3 5 6 7 8 8 8 8 9 9 10 10 9 10 10 10 9 9 9 8 9 11 12 10 5 6 6 6 6 8 13 15 15 13 10 11 8
5 4 2 4 5 4 3 5 7 8 7 7 8 9 10 10 11 10 10 10 9 9 9 8 8 7 7 7 8 9 8 7 6 6 6 6 10 13 14 12 11 12 9
5 4 3 4 5 5 4 6 7 7 7 7 8 9 10 10 9 9 10 10 8 7 8 7 7 6 5 5 8 7 7 8 5 4 5 6 8 8 8 11 13 11 7
5 4 3 4 5 5 5 5 6 5 6 7 9 9 10 11 10 8 8 8 8 8 8 7 6 6 5 4 4 3 3 4 3 3 3 3 4 4 5 6 8 7 7
5 4 4 4 6 5 5 6 5 4 6 8 8 9 9 9 10 9 8 9 9 9 9 7 6 5 6 5 5 3 2 2 2 2 1 1 2 3 3 4 5 5 6
5 5 4 5 5 5 5 6 4 4 5 7 8 8 8 9 9 9 11 12 11 13 12 11 8 6 7 7 5 4 4 4 3 1 1 2 3 4 5 6 5 5 6
Wind_Direction
163 148 146 137 131 126 122 121 110 102 88 65 50 32 357 343 346 330 325 300 286 291 272 275 293 307 295 288 291 288 284 277 266 267 275 262 240 234 232 228 228 228 226
174 170 168 167 167 168 165 163 160 150 134 126 130 152 226 295 321 333 333 326 315 301 288 258 261 264 272 296 300 295 289 283 277 253 269 282 276 241 230 222 224 226 222
191 192 188 190 192 192 190 183 180 167 154 139 103 41 25 0 352 342 328 313 309 304 295 274 258 250 234 253 270 277 278 285 281 249 243 246 265 291 259 228 225 219 215
197 198 197 198 201 203 193 183 176 166 162 145 131 142 172 262 266 275 288 304 309 306 300 286 266 255 242 241 257 251 249 271 287 283 255 244 247 263 297 283 238 224 219
200 201 201 198 200 194 177 168 154 156 169 168 173 181 220 240 265 287 304 309 310 313 314 302 284 269 257 252 253 265 260 242 256 268 268 263 256 237 244 277 285 258 231
200 200 199 184 170 149 143 141 146 172 194 196 201 204 231 254 280 299 307 307 309 313 318 310 299 287 276 266 258 256 260 253 255 263 259 253 250 251 247 255 275 275 262
188 184 171 150 139 131 143 153 159 195 224 222 236 241 247 252 261 273 276 287 296 299 303 313 303 292 281 279 271 263 261 257 256 256 257 256 256 253 251 256 268 274 279
163 156 151 140 134 131 133 144 159 201 239 248 262 266 260 246 252 257 258 264 264 269 278 288 290 288 283 282 271 263 259 257 253 259 259 257 259 256 249 241 251 278 278
142 134 132 138 143 143 150 159 170 212 250 257 265 267 263 252 254 262 263 267 267 275 282 284 286 287 285 281 275 262 261 259 253 254 258 256 254 247 245 240 223 235 263
133 136 143 152 159 158 163 171 183 217 247 263 267 270 263 263 264 268 273 273 273 274 282 282 281 280 279 276 274 270 263 259 256 250 251 254 254 251 245 239 229 219 231
158 159 161 164 156 153 168 199 229 249 268 271 270 277 277 274 270 267 267 266 268 269 269 271 273 275 276 273 269 266 267 260 260 258 250 250 247 246 245 241 233 225 217
161 161 162 159 161 191 229 238 250 260 264 263 266 269 272 274 273 269 266 263 264 264 261 263 264 267 270 267 265 268 271 261 258 257 252 252 252 244 235 232 234 230 220
160 162 166 179 207 236 248 251 258 263 267 267 268 277 281 280 276 271 269 266 263 265 265 261 260 262 263 262 260 258 260 257 253 249 246 247 243 246 238 229 230 228 231
168 173 191 226 247 257 255 257 266 269 273 273 277 280 279 275 272 272 272 269 265 265 264 261 257 257 258 258 258 257 255 256 255 249 242 240 234 237 235 231 226 221 220
170 175 193 230 256 268 270 269 272 278 279 284 285 280 279 280 279 278 277 275 271 271 262 262 262 259 258 260 254 251 256 253 255 253 245 240 239 238 234 229 218 212 213
172 172 193 239 268 274 270 272 278 281 283 288 286 285 289 291 287 284 283 283 278 273 270 266 263 262 268 267 261 254 250 247 248 252 249 246 249 249 243 237 225 210 205
176 194 226 250 265 266 258 265 270 281 292 293 292 294 296 295 290 292 293 287 283 277 276 272 267 264 263 262 261 259 251 242 243 244 243 251 249 241 236 239 235 225 217
188 215 238 255 262 260 265 265 281 294 298 299 298 297 297 297 295 293 289 286 281 280 278 276 272 269 271 266 261 260 254 243 241 239 235 234 237 236 225 225 226 222 219
196 214 225 230 250 269 270 281 297 301 302 299 299 298 299 300 300 297 292 288 286 285 280 276 274 272 275 272 267 262 249 243 243 241 236 228 228 230 222 214 216 221 228
194 206 218 229 266 273 274 290 296 299 295 291 292 296 298 298 298 294 291 288 285 284 284 282 277 272 276 279 274 264 244 242 245 242 238 232 226 226 217 209 206 215 218
191 184 188 239 263 270 276 288 292 288 281 284 293 299 299 298 295 292 291 292 293 291 288 286 283 279 278 284 281 269 239 234 239 237 235 233 225 222 216 205 203 210 201
181 178 201 260 272 272 269 285 287 280 285 292 299 301 301 304 310 302 300 297 294 292 291 291 290 286 285 286 285 274 250 235 232 238 229 226 225 218 211 207 207 204 193
192 201 216 265 284 277 261 275 281 286 296 303 303 303 305 305 303 300 301 303 299 292 292 288 286 290 290 293 298 284 264 248 233 236 236 229 227 209 205 208 200 190 184
200 208 225 270 284 282 275 264 277 287 299 303 304 304 307 309 309 305 298 298 298 294 291 286 283 284 288 291 301 297 284 268 245 249 245 229 222 203 192 192 192 186 181
205 202 216 249 266 275 278 277 278 291 302 303 303 306 305 305 308 306 299 295 286 277 275 277 269 273 282 279 277 272 270 259 241 224 188 177 182 186 187 187 182 182 181
195 201 219 238 258 268 274 278 274 283 299 304 307 307 309 309 307 308 310 302 292 288 277 261 254 255 256 278 281 276 278 275 248 199 194 199 193 196 192 186 187 189 190
Height
1533 1533 1533 1532 1532 1532 1532 1531 1531 1530 1530 1529 1528 1527 1526 1524 1523 1521 1520 1518 1517 1515 1513 1511 1510 1508 1506 1504 1502 1500 1498 1497 1495 1494 1492 1492 1492 1493 1494 1498 1500 1503 1506
1533 1533 1533 1532 1532 1531 1531 1530 1529 1529 1528 1527 1525 1524 1523 1521 1520 1518 1517 1515 1513 1511 1510 1508 1506 1504 1503 1501 1499 1496 1494 1493 1492 1491 1489 1487 1488 1487 1488 1491 1493 1496 1499
1531 1531 1531 1531 1530 1530 1529 1528 1527 1526 1525 1524 1523 1522 1520 1518 1516 1514 1512 1511 1509 1507 1505 1504 1502 1501 1499 1497 1496 1494 1492 1490 1489 1488 1487 1486 1484 1483 1483 1485 1486 1489 1491
1529 1529 1529 1528 1528 1527 1527 1526 1525 1524 1523 1522 1520 1518 1516 1513 1511 1509 1507 1505 1504 1502 1500 1499 1498 1497 1495 1494 1492 1491 1489 1487 1485 1485 1484 1484 1483 1483 1480 1480 1481 1483 1485
1526 1526 1526 1526 1526 1526 1525 1524 1523 1522 1521 1519 1517 1515 1512 1510 1507 1505 1502 1500 1499 1497 1496 1494 1493 1492 1491 1490 1489 1487 1486 1484 1483 1482 1481 1480 1480 1480 1479 1478 1478 1479 1480
1524 1524 1525 1525 1525 1524 1523 1522 1521 1520 1518 1516 1514 1511 1509 1506 1503 1501 1498 1496 1494 1493 1492 1490 1488 1487 1486 1486 1485 1483 1482 1481 1479 1478 1478 1477 1477 1476 1476 1475 1474 1474 1475
1521 1522 1523 1523 1523 1522 1522 1520 1519 1517 1515 1513 1510 1508 1505 1502 1499 1497 1494 1492 1490 1488 1487 1485 1483 1482 1481 1480 1480 1479 1478 1477 1476 1475 1474 1473 1473 1473 1473 1473 1472 1472 1472
1520 1521 1521 1521 1521 1520 1519 1517 1515 1514 1511 1509 1507 1504 1501 1498 1496 1493 1491 1488 1485 1483 1481 1480 1478 1477 1476 1475 1474 1473 1473 1472 1471 1470 1470 1469 1469 1469 1469 1470 1470 1469 1469
1518 1519 1519 1519 1519 1517 1516 1514 1512 1510 1508 1505 1502 1500 1497 1494 1492 1489 1486 1483 1481 1479 1476 1475 1473 1471 1470 1469 1468 1467 1466 1466 1465 1465 1465 1465 1464 1465 1465 1466 1467 1468 1467
1518 1518 1518 1517 1516 1514 1513 1511 1509 1506 1504 1501 1498 1495 1493 1490 1487 1484 1482 1479 1476 1474 1472 1469 1468 1466 1464 1463 1462 1460 1460 1460 1459 1460 1459 1459 1460 1460 1460 1461 1462 1463 1464
1516 1516 1515 1514 1513 1511 1510 1507 1505 1502 1499 1497 1494 1491 1488 1485 1482 1480 1477 1474 1472 1469 1467 1464 1462 1460 1458 1457 1456 1454 1454 1453 1453 1453 1453 1454 1455 1455 1455 1456 1457 1458 1460
1514 1513 1513 1511 1510 1508 1506 1503 1501 1498 1495 1492 1489 1486 1483 1480 1477 1474 1472 1469 1467 1464 1462 1459 1457 1455 1453 1451 1450 1448 1447 1447 1446 1446 1447 1447 1449 1449 1450 1451 1451 1453 1454
1511 1511 1510 1508 1506 1504 1502 1499 1497 1494 1491 1488 1485 1482 1479 1475 1472 1469 1466 1464 1461 1458 1456 1453 1451 1449 1447 1445 1443 1442 1441 1440 1439 1439 1440 1441 1442 1443 1444 1445 1446 1447 1449
1508 1508 1506 1505 1503 1501 1498 1495 1493 1490 1487 1484 1480 1477 1473 1470 1466 1463 1460 1458 1455 1452 1449 1447 1445 1442 1440 1438 1436 1435 1433 1433 1432 1432 1433 1434 1435 1436 1438 1439 1441 1442 1444
1506 1504 1503 1501 1499 1497 1494 1491 1489 1486 1482 1479 1475 1472 1468 1465 1461 1458 1455 1452 1449 1446 1443 1440 1438 1435 1433 1430 1429 1427 1426 1425 1424 1425 1425 1426 1428 1429 1431 1433 1435 1437 1438
1502 1501 1500 1498 1495 1493 1490 1487 1484 1481 1478 1474 1471 1467 1463 1459 1456 1452 1449 1446 1442 1439 1436 1433 1430 1427 1425 1423 1421 1420 1419 1418 1417 1417 1417 1419 1420 1422 1424 1426 1428 1430 1432
1499 1498 1496 1494 1491 1489 1486 1483 1480 1477 1473 1470 1466 1462 1458 1454 1451 1447 1443 1440 1436 1433 1429 1426 1423 1420 1417 1415 1413 1411 1410 1409 1409 1408 1409 1410 1412 1414 1417 1419 1421 1423 1426
1495 1494 1492 1490 1488 1485 1482 1479 1476 1473 1469 1465 1461 1457 1453 1449 1445 1441 1437 1434 1430 1426 1423 1419 1416 1413 1410 1407 1405 1403 1401 1400 1400 1400 1400 1402 1404 1407 1410 1412 1414 1417 1419
1492 1490 1489 1486 1484 1481 1478 1475 1472 1469 1465 1461 1457 1453 1448 1444 1439 1435 1432 1428 1424 1420 1417 1413 1409 1406 1403 1400 1398 1395 1393 1392 1391 1391 1392 1394 1396 1399 1403 1405 1407 1410 1413
1488 1487 1485 1483 1481 1478 1475 1471 1468 1464 1460 1457 1452 1448 1444 1439 1434 1430 1426 1422 1418 1414 1411 1407 1404 1400 1397 1394 1391 1388 1386 1384 1384 1384 1385 1387 1389 1392 1395 1398 1401 1404 1407
1485 1483 1482 1480 1477 1474 1471 1468 1464 1460 1457 1453 1448 1444 1439 1434 1429 1425 1421 1417 1413 1409 1405 1402 1398 1395 1391 1388 1385 1382 1380 1379 1378 1378 1379 1380 1383 1386 1388 1392 1395 1398 1403
1482 1480 1478 1476 1473 1471 1467 1464 1460 1457 1453 1448 1444 1439 1435 1430 1425 1420 1416 1412 1408 1404 1400 1397 1393 1390 1387 1383 1380 1377 1375 1374 1373 1373 1374 1375 1377 1380 1382 1386 1390 1394 1398
1478 1477 1475 1472 1470 1467 1464 1460 1457 1453 1449 1444 1440 1435 1430 1426 1421 1416 1412 1407 1403 1399 1395 1391 1388 1384 1382 1379 1376 1373 1371 1370 1369 1369 1370 1371 1373 1375 1378 1381 1385 1389 1393
1474 1473 1471 1469 1466 1463 1460 1457 1453 1449 1445 1440 1436 1431 1426 1422 1417 1413 1408 1404 1399 1395 1391 1387 1383 1380 1377 1375 1372 1370 1369 1368 1367 1367 1367 1368 1369 1371 1374 1377 1381 1385 1388
1470 1469 1467 1465 1462 1460 1457 1453 1449 1445 1441 1437 1432 1428 1423 1418 1414 1409 1405 1400 1396 1392 1387 1383 1379 1376 1374 1372 1370 1368 1367 1366 1365 1365 1366 1366 1367 1368 1371 1374 1378 1382 1386
1465 1464 1463 1461 1458 1456 1453 1449 1446 1442 1438 1433 1429 1424 1420 1415 1411 1406 1401 1397 1393 1388 1383 1379 1375 1372 1371 1369 1367 1366 1365 1364 1364 1364 1364 1365 1365 1367 1369 1372 1375 1379 1382